This is the latest recevied weather packets stored in our database for station/object K3RUP-1. If no packets are shown the sender has not sent any weather packets the latest 10 day(s).
| Time | Temp. | Humidity | Pressure | Rain* | Wind** | Luminosity | Snow |
|---|---|---|---|---|---|---|---|
| 1788528786 | 23.33° C | 99% | 1013.8 hPa | 0 mm | - | 39 W/m² | - |
| 1788528486 | 22.78° C | 99% | 1013.5 hPa | 0 mm | - | 94 W/m² | - |
| 1788528181 | 23.33° C | 99% | 1013.4 hPa | 0 mm | - | 75 W/m² | - |
| 1788527880 | 23.33° C | 99% | 1013.3 hPa | 0 mm | - | 63 W/m² | - |
| 1788527576 | 23.33° C | 99% | 1013.2 hPa | 0 mm | - | 37 W/m² | - |
| 1788527276 | 22.78° C | 99% | 1013.4 hPa | 0 mm | - | 228 W/m² | - |
| 1788526976 | 22.78° C | 99% | 1013.3 hPa | 0 mm | - | 26 W/m² | - |
| 1788526671 | 22.78° C | 99% | 1013.1 hPa | 0 mm | - | 28 W/m² | - |
| 1788526367 | 22.78° C | 99% | 1013.2 hPa | 0 mm | - | 49 W/m² | - |
| 1788526061 | 22.78° C | 99% | 1013.5 hPa | 0 mm | - | 84 W/m² | - |
| 1788525758 | 22.78° C | 99% | 1013.6 hPa | 0 mm | - | 41 W/m² | - |
| 1788525458 | 22.22° C | 99% | 1013.6 hPa | 0 mm | - | 32 W/m² | - |
| 1788525153 | 22.22° C | 99% | 1013.6 hPa | 0 mm | - | 32 W/m² | - |
| 1788524848 | 22.22° C | 99% | 1014 hPa | 0 mm | - | 38 W/m² | - |
| 1788524542 | 22.22° C | 99% | 1013.6 hPa | 0 mm | - | 31 W/m² | - |
| 1788524238 | 22.22° C | 99% | 1013.7 hPa | 0 mm | - | 30 W/m² | - |
| 1788523933 | 22.22° C | 99% | 1013.6 hPa | 0 mm | - | 28 W/m² | - |
| 1788523629 | 22.22° C | 99% | 1013.6 hPa | 0 mm | - | 27 W/m² | - |
| 1788523325 | 22.22° C | 99% | 1013.3 hPa | 0 mm | - | 26 W/m² | - |
| 1788523021 | 21.67° C | 99% | 1013.5 hPa | 0 mm | - | 24 W/m² | - |
| 1788522715 | 21.67° C | 99% | 1013.5 hPa | 0 mm | - | 23 W/m² | - |
| 1788522415 | 21.67° C | 99% | 1013.6 hPa | 0 mm | - | 22 W/m² | - |
| 1788522109 | 21.67° C | 99% | 1013.5 hPa | 0 mm | - | 19 W/m² | - |
| 1788521804 | 21.67° C | 99% | 1013.6 hPa | 0 mm | - | 19 W/m² | - |
| 1788521503 | 21.67° C | 99% | 1013.6 hPa | 0 mm | - | 17 W/m² | - |
* Rain latest hour (hover to see other rain measurements)
** Current wind speed in m/s (hover to see current wind gust speed)